Date String (YYYY-MM-DD hh:mm:ss) UTC,Instrument flags,absolute air pressure of the measurement (hPa),sample flow rate (lpm),inlet stack bypass flow (lpm),air temperature of the measurement (°C),ambient temperature measured by the external sensor (°C),aerosol sample conditioner tube jacket temperature (°C),OPC LED temperature (°C),internal box temperature (°C),relative humidity of the measurement (%),span deviation,mass concentration of particles derived from Lorenz-Mie calculation of OPC scattering (μg/m³),mass concentration of particles derived from Lorenz-Mie calculation of OPC scattering (μg/m³),mass concentration of particles derived from Lorenz-Mie calculation of OPC scattering (μg/m³)
DateTimeUTC,F1_M11,P_M11,Q1_M11,Q2_M11,T1_M11,T2_M11,T3_M11,T4_M11,T5_M11,U1_M11,ZSPAN_M11,X0_M11,X2_M11,X1_M11
2024-05-29 01:00:00,SystemResetWarning,0831.8,4.99,000.00,030.2,029.6,000.0,038.3,032.0,018.5,0000.0,0012.53,0003.61,0002.57
2024-05-29 01:01:00,SystemResetWarning,0831.8,5.01,000.00,030.2,029.7,000.0,038.4,032.0,018.3,0000.0,0012.61,0003.64,0002.59
2024-05-29 01:02:00,SystemResetWarning,0831.7,5.00,000.00,030.3,029.8,000.0,038.4,032.1,017.8,0000.0,0012.25,0003.66,0002.62
2024-05-29 01:03:00,SystemResetWarning,0831.8,5.01,000.00,030.3,029.8,000.0,038.4,032.1,017.5,0000.0,0012.99,0003.67,0002.64
2024-05-29 01:04:00,SystemResetWarning,0832.1,4.99,000.00,030.4,029.4,000.0,038.5,031.9,017.0,0000.0,0012.91,0003.65,0002.62
2024-05-29 01:05:00,SystemResetWarning,0831.7,4.99,000.00,030.0,027.1,000.0,038.5,030.8,017.6,0000.0,0013.32,0003.65,0002.63
2024-05-29 01:06:00,SystemResetWarning,0831.6,5.02,000.00,029.7,026.7,000.0,038.5,030.5,017.0,0000.0,0014.19,0003.65,0002.64
2024-05-29 01:07:00,SystemResetWarning,0831.7,5.00,000.00,029.6,027.0,000.0,038.4,030.7,017.4,0000.0,0013.55,0003.63,0002.65
2024-05-29 01:08:00,SystemResetWarning,0831.7,4.99,000.00,029.6,027.4,000.0,038.3,030.9,017.3,0000.0,0011.45,0003.63,0002.66
2024-05-29 01:09:00,SystemResetWarning,0831.7,5.00,000.00,029.6,027.8,000.0,038.2,031.1,017.5,0000.0,0011.11,0003.64,0002.67
2024-05-29 01:10:00,SystemResetWarning,0831.7,5.00,000.00,029.7,028.2,000.0,038.2,031.2,017.7,0000.0,0011.53,0003.67,0002.68
2024-05-29 01:11:00,SystemResetWarning,0831.7,5.01,000.00,029.7,028.5,000.0,038.2,031.3,017.2,0000.0,0011.15,0003.65,0002.68
2024-05-29 01:12:00,SystemResetWarning,0831.7,4.99,000.00,029.8,028.7,000.0,038.2,031.4,017.5,0000.0,0011.22,0003.64,0002.68
2024-05-29 01:13:00,SystemResetWarning,0831.7,4.99,000.00,029.8,028.9,000.0,038.2,031.5,016.8,0000.0,0011.67,0003.65,0002.68
2024-05-29 01:14:00,SystemResetWarning,0831.7,4.99,000.00,029.9,029.1,000.0,038.2,031.6,016.8,0000.0,0011.16,0003.64,0002.69
2024-05-29 01:15:00,SystemResetWarning,0832.0,4.99,000.00,030.0,029.3,000.0,038.2,031.7,016.6,0000.0,0011.22,0003.64,0002.70
2024-05-29 01:16:00,SystemResetWarning,0832.3,5.01,000.00,030.0,029.4,000.0,038.2,031.8,016.9,0000.0,0010.78,0003.64,0002.71
2024-05-29 01:17:00,SystemResetWarning,0831.9,5.01,000.00,030.1,029.5,000.0,038.2,031.9,016.8,0000.0,0010.42,0003.70,0002.72
2024-05-29 01:18:00,SystemResetWarning,0831.9,5.00,000.00,030.1,029.6,000.0,038.3,032.0,016.7,0000.0,0010.26,0003.72,0002.73
2024-05-29 01:19:00,SystemResetWarning,0831.9,4.99,000.00,030.2,029.7,000.0,038.3,032.0,017.7,0000.0,0010.91,0003.75,0002.74
2024-05-29 01:20:00,SystemResetWarning,0831.9,5.00,000.00,030.3,029.8,000.0,038.3,032.0,017.9,0000.0,0010.94,0003.76,0002.75
2024-05-29 01:21:00,SystemResetWarning,0831.8,5.01,000.00,030.3,029.8,000.0,038.4,032.1,017.7,0000.0,0010.48,0003.75,0002.74
2024-05-29 01:22:00,SystemResetWarning,0831.9,4.99,000.00,030.2,028.5,000.0,038.5,031.5,018.0,0000.0,0010.06,0003.70,0002.74
2024-05-29 01:23:00,SystemResetWarning,0831.7,5.00,000.00,029.8,026.6,000.0,038.5,030.6,017.9,0000.0,0010.28,0003.70,0002.74
2024-05-29 01:24:00,SystemResetWarning,0831.7,5.01,000.00,029.6,026.8,000.0,038.4,030.5,018.0,0000.0,0009.76,0003.66,0002.73
2024-05-29 01:25:00,SystemResetWarning,0831.7,4.99,000.00,029.6,027.2,000.0,038.3,030.7,018.2,0000.0,0009.53,0003.66,0002.73
2024-05-29 01:26:00,SystemResetWarning,0831.9,5.00,000.00,029.6,027.6,000.0,038.2,031.0,018.0,0000.0,0010.12,0003.70,0002.72
2024-05-29 01:27:00,SystemResetWarning,0832.2,5.00,000.00,029.6,028.0,000.0,038.2,031.1,018.1,0000.0,0010.48,0003.68,0002.72
2024-05-29 01:28:00,SystemResetWarning,0832.1,5.00,000.00,029.7,028.3,000.0,038.1,031.2,018.4,0000.0,0010.65,0003.65,0002.70
2024-05-29 01:29:00,SystemResetWarning,0831.9,4.99,000.00,029.7,028.6,000.0,038.1,031.4,018.4,0000.0,0011.08,0003.61,0002.69
2024-05-29 01:30:00,SystemResetWarning,0831.9,4.99,000.00,029.8,028.8,000.0,038.1,031.5,018.4,0000.0,0011.06,0003.61,0002.68
2024-05-29 01:31:00,SystemResetWarning,0831.9,5.01,000.00,029.8,029.0,000.0,038.1,031.6,018.4,0000.0,0011.61,0003.63,0002.68
2024-05-29 01:32:00,SystemResetWarning,0831.9,5.01,000.00,029.9,029.2,000.0,038.2,031.7,018.0,0000.0,0011.83,0003.62,0002.67
2024-05-29 01:33:00,SystemResetWarning,0832.0,4.99,000.00,030.0,029.3,000.0,038.2,031.7,017.8,0000.0,0012.94,0003.66,0002.68
2024-05-29 01:34:00,SystemResetWarning,0831.9,4.99,000.00,030.0,029.4,000.0,038.2,031.8,017.4,0000.0,0012.91,0003.70,0002.70
2024-05-29 01:35:00,SystemResetWarning,0832.0,5.00,000.00,030.1,029.5,000.0,038.2,031.9,017.8,0000.0,0012.94,0003.70,0002.69
2024-05-29 01:36:00,SystemResetWarning,0832.0,5.01,000.00,030.2,029.6,000.0,038.3,032.0,018.2,0000.0,0013.31,0003.72,0002.70
2024-05-29 01:37:00,SystemResetWarning,0832.0,5.00,000.00,030.2,029.7,000.0,038.3,032.0,018.1,0000.0,0013.19,0003.73,0002.70
2024-05-29 01:38:00,SystemResetWarning,0832.0,4.99,000.00,030.3,029.8,000.0,038.3,032.1,017.7,0000.0,0012.78,0003.74,0002.72
2024-05-29 01:39:00,SystemResetWarning,0832.0,5.00,000.00,030.3,029.7,000.0,038.4,031.9,017.6,0000.0,0012.49,0003.76,0002.72
2024-05-29 01:40:00,SystemResetWarning,0831.9,5.00,000.00,030.1,027.5,000.0,038.4,030.9,017.7,0000.0,0011.71,0003.77,0002.72
2024-05-29 01:41:00,SystemResetWarning,0831.9,5.01,000.00,029.7,026.6,000.0,038.4,030.5,018.1,0000.0,0011.32,0003.80,0002.72
2024-05-29 01:42:00,SystemResetWarning,0831.9,5.01,000.00,029.6,026.9,000.0,038.3,030.5,018.4,0000.0,0010.57,0003.77,0002.72
2024-05-29 01:43:00,SystemResetWarning,0832.0,4.99,000.00,029.6,027.3,000.0,038.2,030.8,018.3,0000.0,0011.32,0003.83,0002.73
2024-05-29 01:44:00,SystemResetWarning,0832.0,5.00,000.00,029.6,027.7,000.0,038.1,031.0,018.5,0000.0,0010.84,0003.87,0002.74
2024-05-29 01:45:00,SystemResetWarning,0832.0,5.01,000.00,029.6,028.1,000.0,038.1,031.2,018.2,0000.0,0011.03,0003.84,0002.74
2024-05-29 01:46:00,SystemResetWarning,0832.0,5.00,000.00,029.7,028.4,000.0,038.1,031.3,018.0,0000.0,0011.01,0003.81,0002.74
2024-05-29 01:47:00,SystemResetWarning,0832.1,5.00,000.00,029.7,028.6,000.0,038.1,031.4,018.0,0000.0,0010.99,0003.80,0002.73
2024-05-29 01:48:00,SystemResetWarning,0832.1,5.00,000.00,029.8,028.8,000.0,038.1,031.5,018.1,0000.0,0010.64,0003.79,0002.72
2024-05-29 01:49:00,SystemResetWarning,0832.1,5.00,000.00,029.8,029.0,000.0,038.1,031.6,018.5,0000.0,0010.62,0003.79,0002.71
2024-05-29 01:50:00,SystemResetWarning,0832.1,5.00,000.00,029.9,029.2,000.0,038.1,031.7,018.7,0000.0,0010.53,0003.79,0002.70
2024-05-29 01:51:00,SystemResetWarning,0832.1,5.00,000.00,030.0,029.3,000.0,038.1,031.7,018.4,0000.0,0010.97,0003.80,0002.71
2024-05-29 01:52:00,SystemResetWarning,0832.1,5.00,000.00,030.0,029.4,000.0,038.2,031.8,018.2,0000.0,0011.20,0003.81,0002.70
2024-05-29 01:53:00,SystemResetWarning,0832.1,5.00,000.00,030.1,029.5,000.0,038.2,031.9,018.2,0000.0,0011.30,0003.83,0002.70
2024-05-29 01:54:00,SystemResetWarning,0832.1,5.00,000.00,030.1,029.6,000.0,038.2,031.9,018.2,0000.0,0010.30,0003.76,0002.69
2024-05-29 01:55:00,SystemResetWarning,0832.1,5.00,000.00,030.2,029.6,000.0,038.2,032.0,018.3,0000.0,0009.74,0003.74,0002.70
2024-05-29 01:56:00,SystemResetWarning,0832.1,5.00,000.00,030.2,029.7,000.0,038.3,032.0,018.4,0000.0,0009.37,0003.79,0002.71
2024-05-29 01:57:00,SystemResetWarning,0832.0,5.00,000.00,030.3,029.8,000.0,038.3,032.1,018.2,0000.0,0009.27,0003.81,0002.71
2024-05-29 01:58:00,SystemResetWarning,0832.1,5.00,000.00,030.4,029.8,000.0,038.3,032.1,017.8,0000.0,0009.34,0003.84,0002.73
2024-05-29 01:59:00,SystemResetWarning,0832.1,5.00,000.00,030.4,029.9,000.0,038.4,032.1,018.0,0000.0,0009.51,0003.86,0002.75
